Time,TemperatureF,DewpointF,PressureIn,WindDirection,WindDirectionDegrees,WindSpeedMPH,WindSpeedGustMPH,Humidity,HourlyPrecipIn,Conditions,Clouds,dailyrainin,SoftwareType,DateUTC
2013-02-17 00:00:00,58.0,-99.9,30.28,SE,145,7.0,11.0,-999,-99.99,,,-99.99,,2013-02-17 06:00:00,
2013-02-17 00:32:00,58.0,-99.9,30.28,SE,145,7.0,11.0,-999,-99.99,,,-99.99,,2013-02-17 06:32:00,
2013-02-17 00:42:00,58.0,-99.9,30.28,SE,145,7.0,11.0,-999,-99.99,,,-99.99,,2013-02-17 06:42:00,
2013-02-17 00:52:00,58.0,-99.9,30.28,SE,145,7.0,11.0,-999,-99.99,,,-99.99,,2013-02-17 06:52:00,
2013-02-17 01:00:00,58.0,-99.9,30.27,South,175,8.0,11.0,-999,-99.99,,,-99.99,,2013-02-17 07:00:00,
2013-02-17 01:32:00,58.0,-99.9,30.27,South,175,8.0,11.0,-999,-99.99,,,-99.99,,2013-02-17 07:32:00,
2013-02-17 01:42:00,58.0,-99.9,30.27,South,175,8.0,11.0,-999,-99.99,,,-99.99,,2013-02-17 07:42:00,
2013-02-17 01:52:00,58.0,-99.9,30.27,South,175,8.0,11.0,-999,-99.99,,,-99.99,,2013-02-17 07:52:00,
2013-02-17 02:00:00,56.0,-99.9,30.25,South,189,7.0,9.0,-999,-99.99,,,-99.99,,2013-02-17 08:00:00,
2013-02-17 02:32:00,56.0,-99.9,30.25,South,189,7.0,9.0,-999,-99.99,,,-99.99,,2013-02-17 08:32:00,
2013-02-17 02:42:00,56.0,-99.9,30.25,South,189,7.0,9.0,-999,-99.99,,,-99.99,,2013-02-17 08:42:00,
2013-02-17 02:52:00,56.0,-99.9,30.25,South,189,7.0,9.0,-999,-99.99,,,-99.99,,2013-02-17 08:52:00,
2013-02-17 03:00:00,54.0,-99.9,30.23,South,173,7.0,8.0,-999,-99.99,,,-99.99,,2013-02-17 09:00:00,
2013-02-17 03:32:00,54.0,-99.9,30.23,South,173,7.0,8.0,-999,-99.99,,,-99.99,,2013-02-17 09:32:00,
2013-02-17 03:42:00,54.0,-99.9,30.23,South,173,7.0,8.0,-999,-99.99,,,-99.99,,2013-02-17 09:42:00,
2013-02-17 03:52:00,54.0,-99.9,30.23,South,173,7.0,8.0,-999,-99.99,,,-99.99,,2013-02-17 09:52:00,
2013-02-17 04:00:00,57.0,-99.9,30.22,SSE,168,9.0,11.0,-999,-99.99,,,-99.99,,2013-02-17 10:00:00,
2013-02-17 04:32:00,57.0,-99.9,30.22,SSE,168,9.0,11.0,-999,-99.99,,,-99.99,,2013-02-17 10:32:00,
2013-02-17 04:42:00,57.0,-99.9,30.22,SSE,168,9.0,11.0,-999,-99.99,,,-99.99,,2013-02-17 10:42:00,
2013-02-17 04:52:00,57.0,-99.9,30.22,SSE,168,9.0,11.0,-999,-99.99,,,-99.99,,2013-02-17 10:52:00,
2013-02-17 05:00:00,57.0,-99.9,30.22,SSE,150,8.0,10.0,-999,-99.99,,,-99.99,,2013-02-17 11:00:00,
2013-02-17 05:32:00,57.0,-99.9,30.22,SSE,150,8.0,10.0,-999,-99.99,,,-99.99,,2013-02-17 11:32:00,
2013-02-17 05:42:00,57.0,-99.9,30.22,SSE,150,8.0,10.0,-999,-99.99,,,-99.99,,2013-02-17 11:42:00,
2013-02-17 05:53:00,57.0,-99.9,30.22,SSE,150,8.0,10.0,-999,-99.99,,,-99.99,,2013-02-17 11:53:00,
2013-02-17 06:00:00,57.0,-99.9,30.22,SSE,161,6.0,10.0,-999,-99.99,,,-99.99,,2013-02-17 12:00:00,
2013-02-17 06:32:00,57.0,-99.9,30.22,SSE,161,6.0,10.0,-999,-99.99,,,-99.99,,2013-02-17 12:32:00,
2013-02-17 06:42:00,57.0,-99.9,30.22,SSE,161,6.0,10.0,-999,-99.99,,,-99.99,,2013-02-17 12:42:00,
2013-02-17 06:52:00,57.0,-99.9,30.22,SSE,161,6.0,10.0,-999,-99.99,,,-99.99,,2013-02-17 12:52:00,
2013-02-17 07:00:00,57.0,-99.9,30.22,South,171,6.0,7.0,-999,-99.99,,,-99.99,,2013-02-17 13:00:00,
2013-02-17 07:32:00,57.0,-99.9,30.22,South,171,6.0,7.0,-999,-99.99,,,-99.99,,2013-02-17 13:32:00,
2013-02-17 07:42:00,57.0,-99.9,30.22,South,171,6.0,7.0,-999,-99.99,,,-99.99,,2013-02-17 13:42:00,
2013-02-17 07:52:00,57.0,-99.9,30.22,South,171,6.0,7.0,-999,-99.99,,,-99.99,,2013-02-17 13:52:00,
2013-02-17 08:00:00,54.0,-99.9,30.22,WSW,254,2.0,3.0,-999,-99.99,,,-99.99,,2013-02-17 14:00:00,
2013-02-17 08:32:00,54.0,-99.9,30.22,WSW,254,2.0,3.0,-999,-99.99,,,-99.99,,2013-02-17 14:32:00,
2013-02-17 08:42:00,54.0,-99.9,30.22,WSW,254,2.0,3.0,-999,-99.99,,,-99.99,,2013-02-17 14:42:00,
2013-02-17 08:53:00,54.0,-99.9,30.22,WSW,254,2.0,3.0,-999,-99.99,,,-99.99,,2013-02-17 14:53:00,
2013-02-17 09:00:00,62.0,-99.9,30.23,SSE,152,10.0,13.0,-999,-99.99,,,-99.99,,2013-02-17 15:00:00,
2013-02-17 09:32:00,62.0,-99.9,30.23,SSE,152,10.0,13.0,-999,-99.99,,,-99.99,,2013-02-17 15:32:00,
2013-02-17 09:42:00,62.0,-99.9,30.23,SSE,152,10.0,13.0,-999,-99.99,,,-99.99,,2013-02-17 15:42:00,
2013-02-17 09:52:00,62.0,-99.9,30.23,SSE,152,10.0,13.0,-999,-99.99,,,-99.99,,2013-02-17 15:52:00,
2013-02-17 10:00:00,64.0,-99.9,30.24,SSE,151,11.0,14.0,-999,-99.99,,,-99.99,,2013-02-17 16:00:00,
2013-02-17 10:32:00,64.0,-99.9,30.24,SSE,151,11.0,14.0,-999,-99.99,,,-99.99,,2013-02-17 16:32:00,
2013-02-17 10:42:00,64.0,-99.9,30.24,SSE,151,11.0,14.0,-999,-99.99,,,-99.99,,2013-02-17 16:42:00,
2013-02-17 10:52:00,64.0,-99.9,30.24,SSE,151,11.0,14.0,-999,-99.99,,,-99.99,,2013-02-17 16:52:00,
2013-02-17 11:00:00,65.0,-99.9,30.23,SSE,158,14.0,17.0,-999,-99.99,,,-99.99,,2013-02-17 17:00:00,
2013-02-17 11:32:00,65.0,-99.9,30.23,SSE,158,14.0,17.0,-999,-99.99,,,-99.99,,2013-02-17 17:32:00,
2013-02-17 11:42:00,65.0,-99.9,30.23,SSE,158,14.0,17.0,-999,-99.99,,,-99.99,,2013-02-17 17:42:00,
2013-02-17 11:53:00,65.0,-99.9,30.23,SSE,158,14.0,17.0,-999,-99.99,,,-99.99,,2013-02-17 17:53:00,
2013-02-17 12:00:00,66.0,-99.9,30.20,SSE,154,14.0,22.0,-999,-99.99,,,-99.99,,2013-02-17 18:00:00,
2013-02-17 12:33:00,66.0,-99.9,30.20,SSE,154,14.0,22.0,-999,-99.99,,,-99.99,,2013-02-17 18:33:00,
2013-02-17 12:42:00,66.0,-99.9,30.20,SSE,154,14.0,22.0,-999,-99.99,,,-99.99,,2013-02-17 18:42:00,
2013-02-17 12:52:00,66.0,-99.9,30.20,SSE,154,14.0,22.0,-999,-99.99,,,-99.99,,2013-02-17 18:52:00,
2013-02-17 13:00:00,67.0,-99.9,30.16,SE,144,13.0,22.0,-999,-99.99,,,-99.99,,2013-02-17 19:00:00,
2013-02-17 13:32:00,67.0,-99.9,30.16,SE,144,13.0,22.0,-999,-99.99,,,-99.99,,2013-02-17 19:32:00,
2013-02-17 13:42:00,67.0,-99.9,30.16,SE,144,13.0,22.0,-999,-99.99,,,-99.99,,2013-02-17 19:42:00,
2013-02-17 13:52:00,67.0,-99.9,30.16,SE,144,13.0,22.0,-999,-99.99,,,-99.99,,2013-02-17 19:52:00,
2013-02-17 14:00:00,65.0,-99.9,30.12,SE,140,17.0,20.0,-999,-99.99,,,-99.99,,2013-02-17 20:00:00,
2013-02-17 14:32:00,65.0,-99.9,30.12,SE,140,17.0,20.0,-999,-99.99,,,-99.99,,2013-02-17 20:32:00,
2013-02-17 14:43:00,65.0,-99.9,30.12,SE,140,17.0,20.0,-999,-99.99,,,-99.99,,2013-02-17 20:43:00,
2013-02-17 14:52:00,65.0,-99.9,30.12,SE,140,17.0,20.0,-999,-99.99,,,-99.99,,2013-02-17 20:52:00,
2013-02-17 15:00:00,65.0,-99.9,30.09,SE,141,17.0,21.0,-999,-99.99,,,-99.99,,2013-02-17 21:00:00,
2013-02-17 15:32:00,65.0,-99.9,30.09,SE,141,17.0,21.0,-999,-99.99,,,-99.99,,2013-02-17 21:32:00,
2013-02-17 15:42:00,65.0,-99.9,30.09,SE,141,17.0,21.0,-999,-99.99,,,-99.99,,2013-02-17 21:42:00,
2013-02-17 15:53:00,65.0,-99.9,30.09,SE,141,17.0,21.0,-999,-99.99,,,-99.99,,2013-02-17 21:53:00,
2013-02-17 16:00:00,65.0,-99.9,30.07,SE,141,14.0,20.0,-999,-99.99,,,-99.99,,2013-02-17 22:00:00,
2013-02-17 16:32:00,65.0,-99.9,30.07,SE,141,14.0,20.0,-999,-99.99,,,-99.99,,2013-02-17 22:32:00,
2013-02-17 16:42:00,65.0,-99.9,30.07,SE,141,14.0,20.0,-999,-99.99,,,-99.99,,2013-02-17 22:42:00,
2013-02-17 16:52:00,65.0,-99.9,30.07,SE,141,14.0,20.0,-999,-99.99,,,-99.99,,2013-02-17 22:52:00,
2013-02-17 17:00:00,65.0,-99.9,30.06,SE,141,15.0,20.0,-999,-99.99,,,-99.99,,2013-02-17 23:00:00,
2013-02-17 17:32:00,65.0,-99.9,30.06,SE,141,15.0,20.0,-999,-99.99,,,-99.99,,2013-02-17 23:32:00,
2013-02-17 17:42:00,65.0,-99.9,30.06,SE,141,15.0,20.0,-999,-99.99,,,-99.99,,2013-02-17 23:42:00,
2013-02-17 17:52:00,65.0,-99.9,30.06,SE,141,15.0,20.0,-999,-99.99,,,-99.99,,2013-02-17 23:52:00,
2013-02-17 18:00:00,65.0,-99.9,30.05,SE,139,15.0,21.0,-999,-99.99,,,-99.99,,2013-02-18 00:00:00,
2013-02-17 18:32:00,65.0,-99.9,30.05,SE,139,15.0,21.0,-999,-99.99,,,-99.99,,2013-02-18 00:32:00,
2013-02-17 18:42:00,65.0,-99.9,30.05,SE,139,15.0,21.0,-999,-99.99,,,-99.99,,2013-02-18 00:42:00,
2013-02-17 18:52:00,65.0,-99.9,30.05,SE,139,15.0,21.0,-999,-99.99,,,-99.99,,2013-02-18 00:52:00,
2013-02-17 19:00:00,65.0,-99.9,30.05,SE,141,13.0,18.0,-999,-99.99,,,-99.99,,2013-02-18 01:00:00,
2013-02-17 19:32:00,65.0,-99.9,30.05,SE,141,13.0,18.0,-999,-99.99,,,-99.99,,2013-02-18 01:32:00,
2013-02-17 19:42:00,65.0,-99.9,30.05,SE,141,13.0,18.0,-999,-99.99,,,-99.99,,2013-02-18 01:42:00,
2013-02-17 19:52:00,65.0,-99.9,30.05,SE,141,13.0,18.0,-999,-99.99,,,-99.99,,2013-02-18 01:52:00,
2013-02-17 20:00:00,65.0,-99.9,30.05,SE,143,15.0,23.0,-999,-99.99,,,-99.99,,2013-02-18 02:00:00,
2013-02-17 20:32:00,65.0,-99.9,30.05,SE,143,15.0,23.0,-999,-99.99,,,-99.99,,2013-02-18 02:32:00,
2013-02-17 20:42:00,65.0,-99.9,30.05,SE,143,15.0,23.0,-999,-99.99,,,-99.99,,2013-02-18 02:42:00,
2013-02-17 20:52:00,65.0,-99.9,30.05,SE,143,15.0,23.0,-999,-99.99,,,-99.99,,2013-02-18 02:52:00,
2013-02-17 21:00:00,65.0,-99.9,30.06,SE,146,16.0,23.0,-999,-99.99,,,-99.99,,2013-02-18 03:00:00,
2013-02-17 21:32:00,65.0,-99.9,30.06,SE,146,16.0,23.0,-999,-99.99,,,-99.99,,2013-02-18 03:32:00,
2013-02-17 21:42:00,65.0,-99.9,30.06,SE,146,16.0,23.0,-999,-99.99,,,-99.99,,2013-02-18 03:42:00,
2013-02-17 21:52:00,65.0,-99.9,30.06,SE,146,16.0,23.0,-999,-99.99,,,-99.99,,2013-02-18 03:52:00,
2013-02-17 22:00:00,65.0,-99.9,30.05,SE,144,15.0,20.0,-999,-99.99,,,-99.99,,2013-02-18 04:00:00,
2013-02-17 22:32:00,65.0,-99.9,30.05,SE,144,15.0,20.0,-999,-99.99,,,-99.99,,2013-02-18 04:32:00,
2013-02-17 22:42:00,65.0,-99.9,30.05,SE,144,15.0,20.0,-999,-99.99,,,-99.99,,2013-02-18 04:42:00,
2013-02-17 22:52:00,65.0,-99.9,30.05,SE,144,15.0,20.0,-999,-99.99,,,-99.99,,2013-02-18 04:52:00,
2013-02-17 23:00:00,65.0,-99.9,30.03,SE,146,15.0,18.0,-999,-99.99,,,-99.99,,2013-02-18 05:00:00,
2013-02-17 23:32:00,65.0,-99.9,30.03,SE,146,15.0,18.0,-999,-99.99,,,-99.99,,2013-02-18 05:32:00,
2013-02-17 23:42:00,65.0,-99.9,30.03,SE,146,15.0,18.0,-999,-99.99,,,-99.99,,2013-02-18 05:42:00,
2013-02-17 23:52:00,65.0,-99.9,30.03,SE,146,15.0,18.0,-999,-99.99,,,-99.99,,2013-02-18 05:52:00,